Location: Αθήνα
(37.9839°N, 23.7283°E)
Time: 21:01:01
(UTC+03:00)

EO-79 - Pass Details

Date: 20 June 2024
Orbit: 555 x 577 km, 98.0° (Epoch: 18 July)

Event Time Altitude Azimuth Distance (km) Brightness Sun altitude
Rises 03:56:59 0° 26° (NNE) 2,749 ? -19.2°
Reaches altitude 10° 03:59:25 10° 40° (NE) 1,846 ? -18.9°
Maximum altitude 04:02:44 25° 96° (E) 1,151 ? -18.5°
Enters shadow 04:05:46 11° 150° (SSE) 1,748 ? -18.1°
